TimeCST,TemperatureF,Dew PointF,Humidity,Sea Level PressureIn,VisibilityMPH,Wind Direction,Wind SpeedMPH,Gust SpeedMPH,PrecipitationIn,Events,Conditions,WindDirDegrees,DateUTC
12:53 AM,33.1,18.0,54,30.19,10.0,WNW,5.8,-,N/A,,Clear,300,2013-01-17 06:53:00
1:53 AM,34.0,19.0,54,30.19,10.0,WNW,8.1,17.3,N/A,,Clear,290,2013-01-17 07:53:00
2:53 AM,35.1,19.0,52,30.19,10.0,WNW,8.1,-,N/A,,Clear,300,2013-01-17 08:53:00
3:53 AM,34.0,18.0,52,30.20,10.0,NW,8.1,-,N/A,,Clear,310,2013-01-17 09:53:00
4:53 AM,34.0,19.0,54,30.22,10.0,WNW,9.2,-,N/A,,Clear,300,2013-01-17 10:53:00
5:53 AM,33.8,19.4,56,30.22,10.0,WNW,8.1,-,N/A,,Clear,300,2013-01-17 11:53:00
6:53 AM,32.0,21.0,64,30.27,10.0,WNW,10.4,-,N/A,,Clear,300,2013-01-17 12:53:00
7:53 AM,32.0,23.0,69,30.32,10.0,WNW,6.9,-,N/A,,Clear,300,2013-01-17 13:53:00
8:53 AM,34.0,26.1,73,30.35,10.0,NW,8.1,-,N/A,,Clear,310,2013-01-17 14:53:00
9:53 AM,39.9,30.0,68,30.38,10.0,NNW,12.7,-,N/A,,Scattered Clouds,340,2013-01-17 15:53:00
10:00 AM,39.2,30.2,70,30.36,10.0,NNW,10.4,-,N/A,,Mostly Cloudy,340,2013-01-17 16:00:00
10:53 AM,39.9,30.9,70,30.39,10.0,North,9.2,-,N/A,,Scattered Clouds,350,2013-01-17 16:53:00
11:05 AM,39.2,30.2,70,30.37,10.0,NNW,9.2,-,N/A,,Mostly Cloudy,330,2013-01-17 17:05:00
11:53 AM,42.1,30.0,62,30.40,10.0,North,9.2,19.6,N/A,,Scattered Clouds,350,2013-01-17 17:53:00
12:53 PM,42.1,28.9,60,30.39,10.0,NNW,9.2,17.3,N/A,,Partly Cloudy,340,2013-01-17 18:53:00
1:53 PM,44.1,28.9,55,30.39,10.0,North,9.2,-,N/A,,Clear,350,2013-01-17 19:53:00
2:53 PM,44.1,28.0,53,30.39,10.0,NNW,8.1,-,N/A,,Clear,330,2013-01-17 20:53:00
3:53 PM,45.0,27.0,49,30.40,10.0,NW,5.8,-,N/A,,Clear,310,2013-01-17 21:53:00
4:53 PM,43.0,26.1,51,30.42,10.0,NW,6.9,-,N/A,,Clear,310,2013-01-17 22:53:00
5:53 PM,39.0,26.1,60,30.45,10.0,NW,4.6,-,N/A,,Clear,310,2013-01-17 23:53:00
6:53 PM,37.0,25.0,62,30.47,10.0,WNW,3.5,-,N/A,,Clear,300,2013-01-18 00:53:00
7:53 PM,36.0,25.0,64,30.48,10.0,WNW,3.5,-,N/A,,Clear,290,2013-01-18 01:53:00
8:53 PM,35.1,25.0,67,30.49,10.0,WNW,3.5,-,N/A,,Clear,290,2013-01-18 02:53:00
9:53 PM,35.1,25.0,67,30.50,10.0,WNW,3.5,-,N/A,,Clear,300,2013-01-18 03:53:00
10:53 PM,33.1,25.0,72,30.50,10.0,Calm,Calm,-,N/A,,Clear,0,2013-01-18 04:53:00
11:53 PM,32.0,24.1,73,30.50,10.0,Calm,Calm,-,N/A,,Clear,0,2013-01-18 05:53:00